{"data":{"norad_id":63999,"intl_designator":"2025-101F","name":"STARLINK-34169","alt_names":[],"object_type":"PAYLOAD","status":"ACTIVE","operator":null,"country":"US","launch_date":"2025-05-14","launch_site_code":"AFETR","launch_vehicle":null,"mission":null,"orbit_class":"UNKNOWN","rcs_meters":null,"size_class":null,"mass_kg":null,"dimensions":null,"purposes":["comms"],"wikipedia_slug":null,"has_3d_model":false,"image_url":null,"decayed_at":null,"tle_current":{"epoch":"2026-05-25T02:28:16.406688Z","epoch_age_seconds":70177,"freshness":"FRESH","line1":"1 63999U 25101F   26145.10296767  .00014277  00000+0  52725-3 0  9995","line2":"2 63999  43.0030 286.2494 0000669 264.0473  96.0302 15.27584744 58741","mean_motion":15.27584744,"eccentricity":6.69e-5,"inclination_deg":43.003,"raan_deg":286.2494,"arg_perigee_deg":264.0473,"mean_anomaly_deg":96.0302,"bstar":0.00052725,"rev_number":5874,"period_min":94.266455962983,"perigee_km":482.57587843427,"apogee_km":483.49390323327,"semimajor_km":6861.1718908338,"source":"CELESTRAK","updated_at":"2026-05-25T13:38:20.218330Z"}}}